TimeCDT,TemperatureF,Dew PointF,Humidity,Sea Level PressureIn,VisibilityMPH,Wind Direction,Wind SpeedMPH,Gust SpeedMPH,PrecipitationIn,Events,Conditions,WindDirDegrees,DateUTC
12:04 AM,68.0,66.0,93,30.12,2.5,ENE,5.8,-,N/A,,Mostly Cloudy,70,2012-10-13 05:04:00
12:53 AM,68.0,66.9,96,30.10,2.5,East,8.1,-,N/A,,Scattered Clouds,80,2012-10-13 05:53:00
1:53 AM,66.9,66.0,97,30.09,2.0,East,4.6,-,N/A,,Scattered Clouds,90,2012-10-13 06:53:00
2:49 AM,66.2,64.4,94,30.09,1.8,East,4.6,-,N/A,,Scattered Clouds,90,2012-10-13 07:49:00
2:53 AM,66.0,64.9,96,30.07,1.8,East,4.6,-,N/A,,Partly Cloudy,90,2012-10-13 07:53:00
3:01 AM,66.0,64.9,96,30.08,2.0,East,4.6,-,N/A,,Clear,80,2012-10-13 08:01:00
3:53 AM,66.0,64.9,96,30.07,2.0,Calm,Calm,-,N/A,,Overcast,0,2012-10-13 08:53:00
4:15 AM,66.9,64.9,93,30.08,2.5,ENE,4.6,-,N/A,,Overcast,60,2012-10-13 09:15:00
4:31 AM,66.9,64.9,93,30.08,3.0,East,3.5,-,N/A,,Overcast,90,2012-10-13 09:31:00
4:53 AM,68.0,64.9,90,30.07,5.0,East,3.5,-,N/A,,Overcast,100,2012-10-13 09:53:00
5:53 AM,66.9,64.9,93,30.08,4.0,Calm,Calm,-,N/A,,Overcast,0,2012-10-13 10:53:00
6:53 AM,66.9,64.0,90,30.09,5.0,ESE,3.5,-,N/A,,Mostly Cloudy,120,2012-10-13 11:53:00
7:48 AM,64.4,62.6,94,30.11,2.5,Variable,3.5,-,N/A,,Clear,0,2012-10-13 12:48:00
7:53 AM,66.0,63.0,90,30.10,2.0,Calm,Calm,-,N/A,,Clear,0,2012-10-13 12:53:00
8:14 AM,68.0,64.9,90,30.11,3.0,Calm,Calm,-,N/A,,Mostly Cloudy,0,2012-10-13 13:14:00
8:53 AM,70.0,66.0,87,30.10,4.0,South,8.1,-,N/A,,Overcast,170,2012-10-13 13:53:00
9:05 AM,70.0,66.0,87,30.11,4.0,South,5.8,-,N/A,,Overcast,180,2012-10-13 14:05:00
9:53 AM,71.1,66.0,84,30.10,5.0,SSE,4.6,-,N/A,,Haze,160,2012-10-13 14:53:00
10:19 AM,72.0,66.0,81,30.11,6.0,South,8.1,-,N/A,,Haze,170,2012-10-13 15:19:00
10:53 AM,73.0,66.0,79,30.08,5.0,SSE,4.6,-,N/A,,Haze,160,2012-10-13 15:53:00
11:29 AM,73.9,66.9,79,30.08,6.0,South,9.2,16.1,N/A,,Haze,170,2012-10-13 16:29:00
11:53 AM,73.9,66.9,79,30.05,6.0,South,9.2,-,N/A,,Haze,180,2012-10-13 16:53:00
1:40 PM,78.1,66.9,68,29.99,7.0,South,11.5,18.4,N/A,,Overcast,180,2012-10-13 18:40:00
1:53 PM,77.0,66.9,71,29.96,7.0,South,9.2,18.4,N/A,,Overcast,180,2012-10-13 18:53:00
2:53 PM,80.1,66.9,64,29.93,8.0,South,6.9,-,N/A,,Overcast,180,2012-10-13 19:53:00
3:53 PM,82.9,66.9,58,29.90,9.0,SSE,10.4,20.7,N/A,,Scattered Clouds,160,2012-10-13 20:53:00
4:53 PM,82.9,66.0,56,29.88,9.0,South,9.2,19.6,N/A,,Mostly Cloudy,170,2012-10-13 21:53:00
5:53 PM,82.0,64.0,54,29.85,10.0,South,10.4,21.9,N/A,,Overcast,180,2012-10-13 22:53:00
7:53 PM,79.0,64.9,62,29.86,7.0,Variable,4.6,-,N/A,,Overcast,0,2012-10-14 00:53:00
9:53 PM,79.0,66.0,64,29.82,10.0,South,13.8,21.9,N/A,,Overcast,180,2012-10-14 02:53:00